Rbgn^[z[y[W
メイン
   新天体発見情報
     Comet P/2019 M2 = 2024 C6 (ATLAS)
投稿するにはまず登録を

スレッド表示 | 古いものから 前のトピック | 次のトピック | 下へ
投稿者 スレッド
佐藤裕久
投稿日時: 2024-8-23 0:19
モデレータ
登録日: 2005-6-12
居住地: 日本
投稿: 2585
オンライン
Comet P/2019 M2 = 2024 C6 (ATLAS)

R. Weryk (西オンタリオ大学,物理および天文学科)の通報によると、2024年2月4日、HaleakalaのPan-
STARRS2 1.8-m Ritchey-Chretien反射望遠鏡で得たCCD画像から、P/2019 M2 (CBET 4651を参照)と
思われる恒星状天体として検出した。Werykは、2月15.4日、3月1.4日、3月31.3日、4月4日UT、
HaleakalaのPan-STARRS1 1.8-m Ritchey-Chretien反射望遠鏡で得た追加観測で恒星状の画像を同定
した。
NK 3926の中野主一氏の予報に対し、Delta(T)は、+0.04 dayであった。
MPEC 2021-L04、2024-D12のM. Rudenkoの予報に対する修正値は、それぞれDelta(T) = +0.04 day、
+0.016 dayであった
彗星年表2024の佐藤裕久の参考軌道要素の修正値は、Delta(T) = +0.05 dayであった

検出位置は次のとおり、
     2024 UT             R.A. (2000) Decl.       Mag.
     Feb.  4.52396   11 02 35.68   - 3 29 20.4   22.4
           4.54619   11 02 34.68   - 3 29 22.8   21.9
          15.39979   10 53 07.94   - 3 38 53.0   22.0
          15.42304   10 53 06.48   - 3 38 52.9   22.1
          15.43467   10 53 05.74   - 3 38 52.8   21.9
     Mar.  1.38974   10 35 42.29   - 3 19 54.2   21.6
           1.40211   10 35 41.33   - 3 19 52.5   21.8
           1.41449   10 35 40.34   - 3 19 50.6   21.8
           1.42624   10 35 39.42   - 3 19 49.0   21.4
          31.27315    9 59 01.35   - 1 23 17.9   22.2
          31.28563    9 59 00.60   - 1 23 14.5   21.6
          31.29809    9 58 59.83   - 1 23 11.4   22.2
     Apr.  4.31644    9 55 17.98   - 1 05 55.5   22.2
           4.36512    9 55 15.36   - 1 05 43.4   22.2
           4.37718    9 55 14.73   - 1 05 40.1   21.7

MPCの連結軌道要素、位置推算表は次のとおり、

Orbital elements:
    P/2019 M2 (ATLAS)                                                           
Epoch 2024 Oct. 17.0 TT = JDT 2460600.5                                         
T 2024 Sept. 28.18687 TT                                Rudenko                 
q   1.0687608            (2000.0)            P               Q                  
n   0.18686510     Peri.  332.52327     +0.18424465     +0.96836252             
a   3.0300555      Node   307.60778     -0.85828722     +0.07506781             
e   0.6472801      Incl.   12.26631     -0.47895402     +0.23798917             
P   5.27                                                                        
From 367 observations 2019 Feb. 19-2024 Apr. 4, mean residual 0".6.             
                                                                                
Ephemeris:
Date    TT    R. A. (2000) Decl.     Delta      r    Elong.  Phase   m1
2024 07 21    11 26 48.4 -07 43 25   1.6371  1.3905    57.7    38.1  20.0
...
2024 08 05    12 04 27.7 -11 06 20   1.5947  1.2812    53.4    39.4  19.6
...
2024 08 13    12 27 18.8 -13 04 24   1.5656  1.2288    51.7    40.3  19.4
...
2024 08 19    12 45 50.6 -14 35 28   1.5418  1.1929    50.7    41.0  19.2
2024 08 20    12 49 03.3 -14 50 44   1.5378  1.1873    50.5    41.1  19.2
2024 08 21    12 52 18.1 -15 06 01   1.5337  1.1818    50.4    41.3  19.2
...
2024 08 27    13 12 33.5 -16 37 24   1.5086  1.1508    49.7    42.0  19.0
...
2024 09 04    13 41 44.2 -18 35 48   1.4753  1.1162    49.1    43.1  18.8
...
2024 09 19    14 43 21.3 -21 47 28   1.4192  1.0758    49.1    44.9  18.6

(MPEC 2024-Q25、CBET 5433、oaa-comet 6901)

スレッド表示 | 古いものから 前のトピック | 次のトピック | トップ

投稿するにはまず登録を
 
© 1999 Tsutomu Seki.